Meteo Giornale » Osservazioni meteo Stati Uniti (USA) » Pompano Beach Airpark
ore: 14:20 - Osservazioni Meteo Pompano Beach Airpark
Lat. 26° 14' N Lon. 80° 6' W Alt. 6 metri s.l.m.
0 °C
Temporale
Temp. 24 Ore
0 °C
32 °C
Ovest
14.8 Km/h
Dew point 0 °C
Umidità 88 %
Visibilità 12 Km
Il sole sorge alle ore 07:00
Il sole tramonta alle ore 19:40
| Data e Ora | Cielo e Fenomeni | T °C | DP °C | Um. % | Pres. hPa | Vis. km | Vento km/h | |
|---|---|---|---|---|---|---|---|---|
| Oggi h: 14:20 | Temporale | 0 | 0 | 88 | 0 | 12 | O 14.8 | |
| Oggi h: 14:00 | Temporale | 28 | 23 | 74 | 1016 | 10 | O/NO 18.5 | |
| Oggi h: 13:53 | Temporale Foschia | 28 | 23 | 74 | 1016 | 2 | O/NO 18.5 | |
| Oggi h: 13:50 | Temporale Foschia | 28 | 23 | 74 | 1016 | 3 | O/NO 16.7 | |
| Oggi h: 13:06 | Temporale | 30 | 26 | 79 | 1016 | 10 | E/NE 9.3 | |
| Oggi h: 12:53 | Nuvoloso | 30 | 26 | 79 | 1016 | 10 | E 13 | |
| Oggi h: 11:53 | Molto Nuvoloso | 31 | 25 | 70 | 1016 | 10 | E 9.3 | |
| Oggi h: 10:53 | Sereno | 31 | 26 | 74 | 1016 | 10 | N 7.4 | |
| Oggi h: 09:53 | Sereno | 30 | 25 | 74 | 1016 | 10 | N 0 | |
| Oggi h: 08:53 | Sereno | 29 | 25 | 79 | 1016 | 10 | N 7.4 | |
| Oggi h: 07:53 | Sereno | 27 | 25 | 88 | 1015 | 10 | N/NO 9.3 | |
| Oggi h: 06:53 | Sereno | 26 | 25 | 94 | 1015 | 10 | N 5.5 | |
| Oggi h: 05:53 | Sereno | 26 | 24 | 88 | 1015 | 10 | N 0 | |
| Oggi h: 04:53 | Sereno | 26 | 25 | 94 | 1014 | 10 | N 5.5 | |
| Oggi h: 03:53 | Sereno | 27 | 24 | 83 | 1015 | 10 | N 5.5 | |
| Oggi h: 02:53 | Sereno | 27 | 24 | 83 | 1015 | 10 | N 0 | |
| Oggi h: 01:53 | Sereno | 27 | 24 | 83 | 1015 | 10 | N 5.5 | |
| Oggi h: 00:53 | Sereno | 27 | 24 | 83 | 1016 | 10 | O/SO 7.4 | |
| Ieri h: 23:53 | Poco Nuvoloso | 27 | 24 | 83 | 1016 | 10 | S 9.3 | |
| Ieri h: 22:53 | Poco Nuvoloso | 29 | 25 | 79 | 1017 | 10 | E 9.3 | |
| Ieri h: 21:53 | Sereno | 29 | 25 | 79 | 1016 | 10 | E 7.4 | |
| Ieri h: 21:20 | Pioggia | 28 | 24 | 78 | 1016 | 10 | E 9.3 | |
| Ieri h: 20:53 | Molto Nuvoloso | 30 | 25 | 74 | 1016 | 10 | N/NE 9.3 | |
| Ieri h: 19:53 | Sereno | 29 | 24 | 74 | 1015 | 10 | E/NE 9.3 | |
| Ieri h: 18:53 | Poco Nuvoloso | 30 | 24 | 70 | 1015 | 10 | N/NE 13 | |
| Ieri h: 17:53 | Poco Nuvoloso | 31 | 25 | 70 | 1015 | 10 | NE 16.7 | |
| Ieri h: 16:53 | Nuvoloso | 31 | 25 | 70 | 1015 | 10 | E/NE 9.3 | |
| Ieri h: 15:53 | Nuvoloso | 31 | 26 | 74 | 1015 | 10 | E 11.1 | |
| Ieri h: 15:46 | Molto Nuvoloso | 31 | 26 | 74 | 1015 | 10 | E 11.1 | |
| Ieri h: 15:34 | Temporale nelle vicinanze | 31 | 25 | 70 | 1015 | 10 | E 11.1 | |
| Ieri h: 15:10 | Temporale | 31 | 25 | 70 | 1015 | 10 | N 11.1 | |
| Ieri h: 14:53 | Temporale nelle vicinanze | 31 | 24 | 66 | 1015 | 10 | E 13 | |
| Ieri h: 14:49 | Sereno | 31 | 24 | 66 | 1015 | 10 | E 13 | |
| Ieri h: 14:31 | Temporale nelle vicinanze | 32 | 26 | 70 | 1016 | 10 | E 16.7 | |



